Hourly Data Report for April 07, 2018

CLYDE RIVER A
NUNAVUT
Current Station Operator: NAVCAN

70°29'09.000" N
68°31'01.000" W
26.50 m
2400804
71090
YCY

Download Data

Hourly Data (April 2018)
Hourly Data Report for April 7, 2018
TIME
LST
Temp Definition
°C
Dew Point Definition
°C
Rel Hum Definition
%
Precip. Amount Definition
mm

Wind Dir Definition
10's deg

Wind Spd Definition
km/h
Visibility Definition
km
Stn Press Definition
kPa
Hmdx Definition


Wind Chill Definition


Weather Definition


00:00 -20.4 -22.6 83 0.0 34 18 16.1 100.75   -30 Snow
01:00 -20.9 -23.2 82 0.0 31 15 16.1 100.74   -30 Snow
02:00 -21.6 -24.2 80 0.0 31 18 16.1 100.69   -32 Snow
03:00 -23.4 -26.1 79 0.0 31 21 16.1 100.65   -35 LegendNANA
04:00 -22.8 -25.5 79 0.0 31 21 16.1 100.61   -34 Snow
05:00 -23.6 -26.1 80 0.0 30 18 16.1 100.57   -34 Snow
06:00 -22.1 -25.0 78 0.0 30 18 16.1 100.55   -33 Snow
07:00 -21.0 -23.9 78 0.0 32 17 16.1 100.55   -31 Snow
08:00 -20.5 -23.4 78 0.0 32 15 12.9 100.53   -30 LegendNANA
09:00 -20.2 -23.4 76 0.0 32 22 11.3 100.50   -31 LegendNANA
10:00 -19.8 -23.4 73 0.0 32 24 16.1 100.46   -31 LegendNANA
11:00 -19.4 -23.4 71 0.0 33 24 12.9 100.46   -31 LegendNANA
12:00 -19.5 -23.4 72 0.0 33 22 16.1 100.40   -30 LegendNANA
13:00 -19.4 -23.0 73 0.0 33 24 11.3 100.37   -31 Snow
14:00 -19.4 -22.9 74 0.0 33 24 6.4 100.38   -31 Haze
15:00 -19.3 -23.2 72 0.0 33 22 14.5 100.40   -30 LegendNANA
16:00 -19.4 -23.1 73 0.0 33 21 16.1 100.41   -30 LegendNANA
17:00 -20.4 -23.6 76 0.0 33 21 16.1 100.41   -31 LegendNANA
18:00 -20.2 -23.1 78 0.0 33 13 16.1 100.43   -29 Snow
19:00 -20.4 -23.3 78 0.0 31 17 16.1 100.37   -30 Snow
20:00 -21.1 -24.0 78 0.0 30 17 16.1 100.35   -31 Snow
21:00 -21.6 -24.6 77 0.0 29 18 16.1 100.38   -32 Snow
22:00 -21.7 -24.7 77 0.0 28 18 16.1 100.38   -32 Snow
23:00 -21.3 -24.2 78 0.0 29 17 14.5 100.36   -31 Snow

Notes on Data Quality.

Legend

  • E = Estimated
  • M = Missing
  • NA = Not Available*
  • [empty] = Indicates an unobserved value
Date modified: